GW5948 Weather Reports


time (UTC)temp
F
wind
direction
speed
knots
gust
knots
rain 1hr
in
rain 24hr
in
rain mn
in
humidity
%
barometer
mb
20260506134022 81 161 5.2 11.3 0.00 0.00 0.00 30 1010.6
20260506133018 81 161 6.1 10.4 0.00 0.00 0.00 31 1010.6
20260506132019 81 168 6.1 10.4 0.00 0.00 0.00 30 1010.6
20260506131019 81 183 6.1 12.2 0.00 0.00 0.00 30 1010.8
20260506130020 81 171 6.1 11.3 0.00 0.00 0.00 30 1010.7
20260506125040 81 159 5.2 11.3 0.00 0.00 0.00 30 1010.8
20260506124022 81 153 6.1 11.3 0.00 0.00 0.00 29 1010.9
20260506123102 80 172 6.1 10.4 0.00 0.00 0.00 30 1010.9
20260506122039 80 147 6.1 13.0 0.00 0.00 0.00 29 1011.1
20260506121020 0 0.0 0.0 0.00 0.00 0.00
20260506120020 0 0.0 0.0 0.00 0.00 0.00
20260506115021 0 0.0 0.0 0.00 0.00 0.00
20260506114020 80 152 7.0 11.3 0.00 0.00 0.00 27 1011.5
20260506113020 80 150 6.1 13.0 0.00 0.00 0.00 27 1011.5
20260506112021 80 149 5.2 13.0 0.00 0.00 0.00 28 1011.6
20260506111019 80 151 5.2 11.3 0.00 0.00 0.00 30 1011.6
20260506110019 80 141 6.1 13.0 0.00 0.00 0.00 32 1011.7
20260506105022 79 148 4.3 11.3 0.00 0.00 0.00 32 1011.6
20260506104023 79 142 6.1 11.3 0.00 0.00 0.00 32 1011.8
20260506103020 79 134 6.1 11.3 0.00 0.00 0.00 32 1011.8
20260506102019 79 177 6.1 12.2 0.00 0.00 0.00 33 1011.9
20260506101021 78 136 5.2 11.3 0.00 0.00 0.00 33 1012.0
20260506100021 78 138 5.2 9.6 0.00 0.00 0.00 34 1012.0
20260506095019 77 130 6.1 10.4 0.00 0.00 0.00 34 1012.1
20260506094020 76 133 6.1 11.3 0.00 0.00 0.00 35 1012.2
20260506093020 76 174 6.1 12.2 0.00 0.00 0.00 36 1012.1
20260506092020 76 127 4.3 8.7 0.00 0.00 0.00 36 1012.2
20260506091020 76 110 4.3 7.8 0.00 0.00 0.00 37 1012.3
20260506090021 74 147 5.2 8.7 0.00 0.00 0.00 38 1012.2
20260506085040 74 122 4.3 9.6 0.00 0.00 0.00 38 1012.3
20260506084019 73 141 4.3 10.4 0.00 0.00 0.00 40 1012.2
20260506083019 72 130 6.1 11.3 0.00 0.00 0.00 40 1012.2
20260506082021 71 116 6.1 11.3 0.00 0.00 0.00 41 1012.3
20260506081020 70 137 6.1 10.4 0.00 0.00 0.00 42 1012.2
20260506073021 67 119 6.1 10.4 0.00 0.00 0.00 45 1012.3
20260506072046 67 121 5.2 9.6 0.00 0.00 0.00 46 1012.3
20260506071020 66 127 5.2 9.6 0.00 0.00 0.00 46 1012.3
20260506062020 62 124 3.5 7.8 0.00 0.00 0.00 50 1012.4
20260506061021 61 124 5.2 9.6 0.00 0.00 0.00 50 1012.5
20260506051019 57 104 3.5 8.7 0.00 0.00 0.00 57 1012.3
20260506045020 55 119 3.5 6.1 0.00 0.00 0.00 60 1012.3
20260506044044 55 63 2.6 5.2 0.00 0.00 0.00 63 1012.3
20260506043020 54 111 3.5 7.0 0.00 0.00 0.00 63 1012.4
20260506042021 53 109 2.6 4.3 0.00 0.00 0.00 64 1012.3
20260506041023 52 64 1.7 5.2 0.00 0.00 0.00 65 1012.2
20260506040020 51 112 3.5 5.2 0.00 0.00 0.00 65 1012.2
20260506035023 51 131 1.7 3.5 0.00 0.00 0.00 66 1012.2
20260506034020 50 118 2.6 5.2 0.00 0.00 0.00 66 1012.1
20260506033022 50 123 2.6 4.3 0.00 0.00 0.00 67 1012.0
20260506032020 50 107 0.9 3.5 0.00 0.00 0.00 67 1012.1
20260506031020 49 114 4.3 7.8 0.00 0.00 0.00 67 1011.9
20260506025021 49 90 4.3 5.2 0.00 0.00 0.00 68 1011.6
20260506024100 50 101 2.6 4.3 0.00 0.00 0.00 68 1011.6
20260506023022 50 101 3.5 5.2 0.00 0.00 0.00 68 1011.6
20260506022021 50 112 4.3 7.8 0.00 0.00 0.00 68 1011.6
20260506021019 50 109 4.3 7.0 0.00 0.00 0.00 69 1011.4
20260506020021 50 101 4.3 9.6 0.00 0.00 0.00 69 1011.3
20260506015021 51 84 5.2 9.6 0.00 0.00 0.00 69 1011.4
20260506014040 51 102 6.1 8.7 0.00 0.00 0.00 71 1011.5
20260506013019 51 95 3.5 6.1 0.00 0.00 0.00 71 1011.5
20260506012019 51 95 4.3 6.1 0.00 0.00 0.00 72 1011.4
20260506011021 52 92 4.3 7.8 0.00 0.00 0.00 70 1011.4
20260506010041 53 101 5.2 8.7 0.00 0.00 0.00 69 1011.4
20260506005042 53 115 5.2 7.8 0.00 0.00 0.00 69 1011.3
20260506004020 53 116 6.1 9.6 0.00 0.00 0.00 69 1011.3
20260506003102 53 116 6.1 9.6 0.00 0.00 0.00 70 1011.1
20260506002022 53 114 6.1 8.7 0.00 0.00 0.00 70 1011.2
20260506001019 54 109 6.1 8.7 0.00 0.00 0.00 69 1011.1
20260506000020 54 120 4.3 7.0 0.00 0.00 0.00 69 1011.2
20260505235020 54 111 4.3 7.8 0.00 0.00 0.00 68 1011.1
20260505234019 55 114 4.3 9.6 0.00 0.00 0.00 67 1011.0
20260505233021 55 114 5.2 10.4 0.00 0.00 0.00 67 1011.1
20260505232020 55 104 7.0 10.4 0.00 0.00 0.00 66 1011.0
20260505231021 56 108 6.1 11.3 0.00 0.00 0.00 65 1011.1
20260505230021 56 106 7.8 11.3 0.00 0.00 0.00 64 1011.0
20260505225020 57 107 7.0 11.3 0.00 0.00 0.00 63 1011.0
20260505224019 57 103 7.0 10.4 0.00 0.00 0.00 63 1011.1
20260505223019 57 97 5.2 8.7 0.00 0.00 0.00 62 1011.1
20260505222020 58 98 5.2 7.0 0.00 0.00 0.00 60 1011.0
20260505221020 59 96 4.3 7.8 0.00 0.00 0.00 58 1011.2
20260505220020 61 96 4.3 6.1 0.00 0.00 0.00 55 1011.2
20260505215020 61 112 4.3 7.8 0.00 0.00 0.00 53 1011.1
20260505214020 62 122 4.3 7.8 0.00 0.00 0.00 53 1011.1
20260505213039 62 121 4.3 8.7 0.00 0.00 0.00 51 1011.0
20260505212041 63 125 3.5 7.0 0.00 0.00 0.00 50 1011.1
20260505211020 64 131 3.5 7.8 0.00 0.00 0.00 49 1011.0
20260505210020 64 139 2.6 5.2 0.00 0.00 0.00 48 1011.1
20260505205018 64 148 2.6 5.2 0.00 0.00 0.00 47 1011.0
20260505204019 65 140 4.3 7.8 0.00 0.00 0.00 46 1011.0
20260505203019 65 132 3.5 6.1 0.00 0.00 0.00 46 1011.0
20260505202040 65 128 3.5 6.1 0.00 0.00 0.00 46 1011.0
20260505201020 65 148 4.3 7.0 0.00 0.00 0.00 46 1011.1
20260505200019 65 154 4.3 6.1 0.00 0.00 0.00 47 1011.0
20260505195039 65 160 4.3 6.1 0.00 0.00 0.00 47 1010.9
20260505194019 65 156 3.5 6.1 0.00 0.00 0.00 47 1010.9
20260505193018 66 154 4.3 7.0 0.00 0.00 0.00 47 1010.8
20260505192018 67 150 3.5 7.8 0.00 0.00 0.00 46 1010.8
20260505191017 67 155 4.3 7.8 0.00 0.00 0.00 45 1010.8
20260505190018 67 156 4.3 7.0 0.00 0.00 0.00 45 1010.7
20260505185018 67 143 3.5 5.2 0.00 0.00 0.00 45 1010.7
20260505184019 69 194 3.5 5.2 0.00 0.00 0.00 42 1010.6
20260505183018 70 156 4.3 7.0 0.00 0.00 0.00 41 1010.5
20260505182038 71 145 3.5 7.8 0.00 0.00 0.00 39 1010.4
20260505181019 70 135 4.3 7.8 0.00 0.00 0.00 38 1010.4
20260505180017 71 132 2.6 3.5 0.00 0.00 0.00 35 1010.3
20260505175017 72 123 2.6 3.5 0.00 0.00 0.00 34 1010.1
20260505174017 73 110 2.6 5.2 0.00 0.00 0.00 33 1010.1
20260505173018 73 117 2.6 3.5 0.00 0.00 0.00 32 1010.1
20260505172017 74 103 2.6 3.5 0.00 0.00 0.00 31 1010.1
20260505171017 75 117 2.6 3.5 0.00 0.00 0.00 31 1010.0
20260505165038 77 113 2.6 3.5 0.00 0.00 0.00 30 1010.1
20260505164037 78 104 1.7 2.6 0.00 0.00 0.00 31 1010.0
20260505163017 78 106 0.9 1.7 0.00 0.00 0.00 30 1010.1
20260505162017 78 109 1.7 3.5 0.00 0.00 0.00 29 1010.1
20260505161018 78 102 2.6 4.3 0.00 0.00 0.00 28 1010.1
20260505153017 80 120 2.6 5.2 0.00 0.00 0.00 25 1010.3
20260505152017 80 122 2.6 6.1 0.00 0.00 0.00 25 1010.3
20260505151018 81 114 1.7 6.1 0.00 0.00 0.00 25 1010.3